Terminal Aerodrome Forecast
Issued by NWS Blacksburg, VA

Current Version | Previous Version | Graphics & Text | Print | Product List | Glossary On
Versions: 1 2 3 4 5 6 7 8 9 10 11 12 13 14 15 16 17 18 19 20 21 22 23 24 25 26 27 28 29 30 31 32 33 34 35 36 37 38 39 40 41 42
000
FTUS41 KRNK 091656 AAC
TAFBLF
TAF AMD
KBLF 091656Z 0917/1012 27008KT P6SM -TSRA BKN006CB OVC045
     FM091800 27006KT P6SM VCTS BKN045CB
     FM100000 25005KT P6SM SCT015 BKN040
     FM100600 24003KT 4SM BR OVC025
     FM100900 27003KT 2SM BR BKN100=

USA.gov is the U.S. government's official web portal to all federal, state and local government web resources and services.